Time,TemperatureF,DewpointF,PressureIn,WindDirection,WindDirectionDegrees,WindSpeedMPH,WindSpeedGustMPH,Humidity,HourlyPrecipIn,Conditions,Clouds,dailyrainin,SoftwareType,DateUTC
2013-03-05 00:02:00,32.1,25.1,30.04,NNW,338,3.1,3.1,75,0.00,,,0.00,WUHU216HW,2013-03-05 06:02:00,
2013-03-05 00:07:00,32.1,25.1,30.04,WNW,293,0.4,3.1,75,0.00,,,0.00,WUHU216HW,2013-03-05 06:07:00,
2013-03-05 00:12:00,31.9,24.9,30.04,SSW,203,1.6,2.0,75,0.00,,,0.00,WUHU216HW,2013-03-05 06:12:00,
2013-03-05 00:17:00,31.9,25.2,30.03,NNW,338,3.8,3.8,76,0.00,,,0.00,WUHU216HW,2013-03-05 06:17:00,
2013-03-05 00:23:00,31.9,25.2,30.04,WNW,293,0.9,3.8,76,0.00,,,0.00,WUHU216HW,2013-03-05 06:23:00,
2013-03-05 00:28:00,31.9,25.2,30.03,West,270,0.7,1.8,76,0.00,,,0.00,WUHU216HW,2013-03-05 06:28:00,
2013-03-05 00:33:00,31.9,25.2,30.03,West,270,0.7,3.4,76,0.00,,,0.00,WUHU216HW,2013-03-05 06:33:00,
2013-03-05 00:39:00,31.9,25.2,30.03,NNW,338,1.1,4.5,76,0.00,,,0.00,WUHU216HW,2013-03-05 06:39:00,
2013-03-05 00:40:00,31.9,25.6,30.03,NNW,338,1.8,1.8,77,0.00,,,0.00,WUHU216HW,2013-03-05 06:40:00,
2013-03-05 00:44:00,31.9,25.6,30.03,NNW,338,1.8,4.5,77,0.00,,,0.00,WUHU216HW,2013-03-05 06:44:00,
2013-03-05 01:01:00,31.7,25.7,30.03,SSE,158,0.4,0.4,78,0.00,,,0.00,WUHU216HW,2013-03-05 07:01:00,
2013-03-05 01:06:00,31.7,26.0,30.03,WNW,293,2.5,2.5,79,0.00,,,0.00,WUHU216HW,2013-03-05 07:06:00,
2013-03-05 01:11:00,31.7,26.3,30.03,NW,315,1.3,2.5,80,0.00,,,0.00,WUHU216HW,2013-03-05 07:11:00,
2013-03-05 01:16:00,31.7,26.3,30.03,NNW,338,2.9,3.1,80,0.00,,,0.00,WUHU216HW,2013-03-05 07:16:00,
2013-03-05 01:21:00,31.7,26.3,30.02,NW,315,3.4,3.4,80,0.00,,,0.00,WUHU216HW,2013-03-05 07:21:00,
2013-03-05 01:27:00,31.5,26.1,30.02,WSW,248,1.6,3.4,80,0.00,,,0.00,WUHU216HW,2013-03-05 07:27:00,
2013-03-05 01:32:00,31.6,26.1,30.02,NNW,338,2.5,2.5,80,0.00,,,0.00,WUHU216HW,2013-03-05 07:32:00,
2013-03-05 01:37:00,31.6,26.1,30.02,NW,315,0.4,2.5,80,0.00,,,0.00,WUHU216HW,2013-03-05 07:37:00,
2013-03-05 01:42:00,31.6,26.4,30.02,NW,315,0.4,2.5,81,0.00,,,0.00,WUHU216HW,2013-03-05 07:42:00,
2013-03-05 01:47:00,31.6,26.1,30.01,NNW,338,1.3,2.5,80,0.00,,,0.00,WUHU216HW,2013-03-05 07:47:00,
2013-03-05 01:52:00,31.6,25.8,30.01,NNW,338,0.9,1.3,79,0.00,,,0.00,WUHU216HW,2013-03-05 07:52:00,
2013-03-05 01:57:00,31.6,26.1,30.01,SSW,203,0.9,1.1,80,0.00,,,0.00,WUHU216HW,2013-03-05 07:57:00,
2013-03-05 02:02:00,31.6,26.1,30.01,NNW,338,1.1,1.3,80,0.00,,,0.00,WUHU216HW,2013-03-05 08:02:00,
2013-03-05 02:07:00,31.6,26.4,30.00,NW,315,2.0,2.0,81,0.00,,,0.00,WUHU216HW,2013-03-05 08:07:00,
2013-03-05 02:12:00,31.6,26.1,30.00,SSE,158,1.3,2.5,80,0.00,,,0.00,WUHU216HW,2013-03-05 08:12:00,
2013-03-05 02:18:00,31.6,26.1,30.00,SSE,158,1.1,2.5,80,0.00,,,0.00,WUHU216HW,2013-03-05 08:18:00,
2013-03-05 02:23:00,31.5,26.3,29.99,NNW,338,1.1,2.5,81,0.00,,,0.00,WUHU216HW,2013-03-05 08:23:00,
2013-03-05 02:29:00,31.5,26.3,29.99,NW,315,1.6,2.5,81,0.00,,,0.00,WUHU216HW,2013-03-05 08:29:00,
2013-03-05 02:34:00,31.5,26.4,29.99,NNW,338,1.6,2.5,81,0.00,,,0.00,WUHU216HW,2013-03-05 08:34:00,
2013-03-05 02:40:00,31.5,26.4,29.99,WSW,248,2.0,2.0,81,0.00,,,0.00,WUHU216HW,2013-03-05 08:40:00,
2013-03-05 02:45:00,31.6,26.5,29.99,WNW,293,0.9,2.0,81,0.00,,,0.00,WUHU216HW,2013-03-05 08:45:00,
2013-03-05 02:51:00,31.5,26.4,29.99,NW,315,0.0,2.5,81,0.00,,,0.00,WUHU216HW,2013-03-05 08:51:00,
2013-03-05 02:56:00,31.5,26.4,29.98,SSE,158,0.4,1.8,81,0.00,,,0.00,WUHU216HW,2013-03-05 08:56:00,
2013-03-05 03:02:00,31.5,26.4,29.98,NW,315,0.7,1.8,81,0.00,,,0.00,WUHU216HW,2013-03-05 09:02:00,
2013-03-05 03:07:00,31.7,26.8,29.98,NW,315,1.1,2.5,82,0.00,,,0.00,WUHU216HW,2013-03-05 09:07:00,
2013-03-05 03:12:00,31.7,26.5,29.98,NNW,338,1.1,3.4,81,0.00,,,0.00,WUHU216HW,2013-03-05 09:12:00,
2013-03-05 03:17:00,31.6,26.4,29.98,SE,135,0.2,3.4,81,0.00,,,0.00,WUHU216HW,2013-03-05 09:17:00,
2013-03-05 03:22:00,31.6,26.4,29.98,SSE,158,0.7,1.8,81,0.00,,,0.00,WUHU216HW,2013-03-05 09:22:00,
2013-03-05 03:27:00,31.7,26.5,29.98,SSE,158,0.4,1.8,81,0.00,,,0.00,WUHU216HW,2013-03-05 09:27:00,
2013-03-05 03:32:00,31.7,26.5,29.98,NW,315,1.8,2.7,81,0.00,,,0.00,WUHU216HW,2013-03-05 09:32:00,
2013-03-05 03:37:00,31.7,26.8,29.97,NNW,338,0.0,2.7,82,0.00,,,0.00,WUHU216HW,2013-03-05 09:37:00,
2013-03-05 03:42:00,31.7,26.5,29.97,NW,315,0.9,2.5,81,0.00,,,0.00,WUHU216HW,2013-03-05 09:42:00,
2013-03-05 03:47:00,31.7,26.8,29.97,North,0,0.7,0.9,82,0.00,,,0.00,WUHU216HW,2013-03-05 09:47:00,
2013-03-05 03:52:00,31.7,26.8,29.97,NW,315,1.1,3.1,82,0.00,,,0.00,WUHU216HW,2013-03-05 09:52:00,
2013-03-05 03:58:00,31.7,26.9,29.97,NNW,338,0.2,3.1,82,0.00,,,0.00,WUHU216HW,2013-03-05 09:58:00,
2013-03-05 04:03:00,31.7,26.9,29.96,NW,315,0.9,4.0,82,0.00,,,0.00,WUHU216HW,2013-03-05 10:03:00,
2013-03-05 04:08:00,31.7,26.9,29.96,SSE,158,1.8,4.0,82,0.00,,,0.00,WUHU216HW,2013-03-05 10:08:00,
2013-03-05 04:13:00,31.8,26.6,29.96,SSE,158,1.8,2.0,81,0.00,,,0.00,WUHU216HW,2013-03-05 10:13:00,
2013-03-05 04:18:00,31.8,26.9,29.96,SW,225,1.6,2.7,82,0.00,,,0.00,WUHU216HW,2013-03-05 10:18:00,
2013-03-05 04:23:00,31.8,26.6,29.96,SW,225,2.5,2.7,81,0.00,,,0.00,WUHU216HW,2013-03-05 10:23:00,
2013-03-05 04:28:00,31.8,26.9,29.96,SSE,158,0.4,4.3,82,0.00,,,0.00,WUHU216HW,2013-03-05 10:28:00,
2013-03-05 04:34:00,31.8,26.9,29.95,SSE,158,1.6,4.3,82,0.00,,,0.00,WUHU216HW,2013-03-05 10:34:00,
2013-03-05 04:39:00,31.8,26.9,29.95,SSW,203,1.6,4.0,82,0.00,,,0.00,WUHU216HW,2013-03-05 10:39:00,
2013-03-05 04:44:00,31.8,26.9,29.95,NW,315,0.4,4.0,82,0.00,,,0.00,WUHU216HW,2013-03-05 10:44:00,
2013-03-05 04:49:00,31.8,26.9,29.95,NW,315,1.1,4.3,82,0.00,,,0.00,WUHU216HW,2013-03-05 10:49:00,
2013-03-05 04:54:00,31.8,26.9,29.95,NW,315,3.8,4.3,82,0.00,,,0.00,WUHU216HW,2013-03-05 10:54:00,
2013-03-05 04:59:00,31.8,26.9,29.95,WSW,248,2.2,4.0,82,0.00,,,0.00,WUHU216HW,2013-03-05 10:59:00,
2013-03-05 05:04:00,31.8,27.0,29.95,West,270,0.9,3.6,82,0.00,,,0.00,WUHU216HW,2013-03-05 11:04:00,
2013-03-05 05:10:00,31.8,26.7,29.95,WNW,293,1.8,4.3,81,0.00,,,0.00,WUHU216HW,2013-03-05 11:10:00,
2013-03-05 05:15:00,31.9,26.7,29.95,NNW,338,4.3,4.3,81,0.00,,,0.00,WUHU216HW,2013-03-05 11:15:00,
2013-03-05 05:21:00,31.9,26.7,29.95,WNW,293,1.6,4.3,81,0.00,,,0.00,WUHU216HW,2013-03-05 11:21:00,
2013-03-05 05:26:00,31.9,26.7,29.95,SW,225,0.0,2.0,81,0.00,,,0.00,WUHU216HW,2013-03-05 11:26:00,
2013-03-05 05:31:00,31.9,26.7,29.95,NNW,338,0.4,3.4,81,0.00,,,0.00,WUHU216HW,2013-03-05 11:31:00,
2013-03-05 05:36:00,31.9,26.7,29.95,NW,315,1.1,3.4,81,0.00,,,0.00,WUHU216HW,2013-03-05 11:36:00,
2013-03-05 05:41:00,31.9,26.7,29.95,NNW,338,1.8,3.6,81,0.00,,,0.00,WUHU216HW,2013-03-05 11:41:00,
2013-03-05 05:46:00,31.9,26.7,29.94,NNW,338,1.1,3.6,81,0.00,,,0.00,WUHU216HW,2013-03-05 11:46:00,
2013-03-05 05:51:00,31.9,26.7,29.94,SSE,158,3.6,3.6,81,0.00,,,0.00,WUHU216HW,2013-03-05 11:51:00,
2013-03-05 05:56:00,31.8,27.0,29.94,SSE,158,1.3,3.6,82,0.00,,,0.00,WUHU216HW,2013-03-05 11:56:00,
2013-03-05 06:02:00,31.6,27.3,29.94,NW,315,3.4,3.4,84,0.00,,,0.00,WUHU216HW,2013-03-05 12:02:00,
2013-03-05 06:07:00,31.6,27.1,29.94,South,180,0.4,3.4,83,0.00,,,0.00,WUHU216HW,2013-03-05 12:07:00,
2013-03-05 06:12:00,31.5,27.4,29.94,WSW,248,0.0,1.6,85,0.00,,,0.00,WUHU216HW,2013-03-05 12:12:00,
2013-03-05 06:17:00,31.5,27.4,29.94,NW,315,0.7,1.8,85,0.00,,,0.00,WUHU216HW,2013-03-05 12:17:00,
2013-03-05 06:22:00,31.3,27.5,29.93,SW,225,1.3,2.9,86,0.00,,,0.00,WUHU216HW,2013-03-05 12:22:00,
2013-03-05 06:26:00,31.3,27.5,29.93,NW,315,1.8,1.8,86,0.00,,,0.00,WUHU216HW,2013-03-05 12:26:00,
2013-03-05 06:28:00,31.3,27.5,29.93,NW,315,1.8,2.9,86,0.00,,,0.00,WUHU216HW,2013-03-05 12:28:00,
2013-03-05 06:33:00,31.3,27.5,29.93,NW,315,1.8,1.8,86,0.00,,,0.00,WUHU216HW,2013-03-05 12:33:00,
2013-03-05 06:57:00,31.1,27.9,29.93,NW,315,0.4,0.4,88,0.00,,,0.00,WUHU216HW,2013-03-05 12:57:00,
2013-03-05 07:02:00,30.9,27.5,29.94,SSE,158,1.1,1.8,87,0.00,,,0.00,WUHU216HW,2013-03-05 13:02:00,
2013-03-05 07:07:00,31.0,28.1,29.94,SSE,158,0.4,3.4,89,0.00,,,0.00,WUHU216HW,2013-03-05 13:07:00,
2013-03-05 07:12:00,30.9,28.0,29.94,SSE,158,2.2,3.4,89,0.00,,,0.00,WUHU216HW,2013-03-05 13:12:00,
2013-03-05 07:17:00,31.0,27.8,29.93,NW,315,1.1,2.2,88,0.00,,,0.00,WUHU216HW,2013-03-05 13:17:00,
2013-03-05 07:22:00,31.0,28.1,29.93,NNW,338,2.9,2.9,89,0.00,,,0.00,WUHU216HW,2013-03-05 13:22:00,
2013-03-05 07:28:00,31.0,28.1,29.93,NW,315,0.7,3.1,89,0.00,,,0.00,WUHU216HW,2013-03-05 13:28:00,
2013-03-05 07:33:00,31.0,28.1,29.93,SSE,158,1.1,3.1,89,0.00,,,0.00,WUHU216HW,2013-03-05 13:33:00,
2013-03-05 07:38:00,30.9,28.0,29.94,NW,315,2.2,2.2,89,0.00,,,0.00,WUHU216HW,2013-03-05 13:38:00,
2013-03-05 07:43:00,31.1,28.2,29.94,West,270,0.4,2.2,89,0.00,,,0.00,WUHU216HW,2013-03-05 13:43:00,
2013-03-05 07:48:00,31.1,28.2,29.93,NNW,338,0.4,1.3,89,0.00,,,0.00,WUHU216HW,2013-03-05 13:48:00,
2013-03-05 07:53:00,31.1,28.2,29.94,North,0,1.6,1.6,89,0.00,,,0.00,WUHU216HW,2013-03-05 13:53:00,
2013-03-05 07:58:00,31.1,28.2,29.94,NNW,338,1.1,4.7,89,0.00,,,0.00,WUHU216HW,2013-03-05 13:58:00,
2013-03-05 08:03:00,31.1,28.2,29.94,NW,315,1.1,4.7,89,0.00,,,0.00,WUHU216HW,2013-03-05 14:03:00,
2013-03-05 08:08:00,31.1,28.2,29.94,WNW,293,0.2,2.5,89,0.00,,,0.00,WUHU216HW,2013-03-05 14:08:00,
2013-03-05 08:13:00,31.1,28.1,29.94,NW,315,0.2,1.1,89,0.00,,,0.00,WUHU216HW,2013-03-05 14:13:00,
2013-03-05 08:18:00,31.0,28.1,29.94,NW,315,0.0,1.6,89,0.00,,,0.00,WUHU216HW,2013-03-05 14:18:00,
2013-03-05 08:23:00,31.0,28.1,29.94,NW,315,1.6,1.6,89,0.00,,,0.00,WUHU216HW,2013-03-05 14:23:00,
2013-03-05 08:28:00,31.0,28.1,29.94,NNW,338,0.4,1.6,89,0.00,,,0.00,WUHU216HW,2013-03-05 14:28:00,
2013-03-05 08:34:00,31.0,28.1,29.95,WNW,293,0.4,1.6,89,0.00,,,0.00,WUHU216HW,2013-03-05 14:34:00,
2013-03-05 08:39:00,31.0,28.1,29.94,NW,315,0.7,1.6,89,0.00,,,0.00,WUHU216HW,2013-03-05 14:39:00,
2013-03-05 08:44:00,31.0,28.1,29.94,SSW,203,1.1,2.2,89,0.00,,,0.00,WUHU216HW,2013-03-05 14:44:00,
2013-03-05 08:49:00,31.2,28.3,29.94,NW,315,1.1,2.5,89,0.00,,,0.00,WUHU216HW,2013-03-05 14:49:00,
2013-03-05 08:54:00,31.2,28.3,29.94,SSW,203,0.0,2.5,89,0.00,,,0.00,WUHU216HW,2013-03-05 14:54:00,
2013-03-05 08:59:00,31.4,28.4,29.94,NNW,338,0.0,2.5,89,0.00,,,0.00,WUHU216HW,2013-03-05 14:59:00,
2013-03-05 09:05:00,31.3,28.4,29.94,West,270,2.9,2.9,89,0.00,,,0.00,WUHU216HW,2013-03-05 15:05:00,
2013-03-05 09:10:00,31.3,28.4,29.93,NNW,338,2.5,2.9,89,0.00,,,0.00,WUHU216HW,2013-03-05 15:10:00,
2013-03-05 09:15:00,31.3,28.4,29.93,NNW,338,1.8,2.9,89,0.00,,,0.00,WUHU216HW,2013-03-05 15:15:00,
2013-03-05 09:20:00,31.3,28.4,29.93,NNW,338,3.4,3.4,89,0.00,,,0.00,WUHU216HW,2013-03-05 15:20:00,
2013-03-05 09:26:00,31.3,28.4,29.92,NNW,338,1.3,3.4,89,0.00,,,0.00,WUHU216HW,2013-03-05 15:26:00,
2013-03-05 09:31:00,31.5,28.6,29.92,WNW,293,0.4,2.5,89,0.00,,,0.00,WUHU216HW,2013-03-05 15:31:00,
2013-03-05 09:36:00,31.5,28.6,29.92,NNW,338,1.1,2.0,89,0.00,,,0.00,WUHU216HW,2013-03-05 15:36:00,
2013-03-05 09:41:00,31.6,28.9,29.92,NNW,338,1.3,2.5,90,0.00,,,0.00,WUHU216HW,2013-03-05 15:41:00,
2013-03-05 09:46:00,31.8,29.1,29.92,NW,315,1.6,2.7,90,0.00,,,0.00,WUHU216HW,2013-03-05 15:46:00,
2013-03-05 09:51:00,31.8,29.1,29.91,NW,315,2.5,3.6,90,0.00,,,0.00,WUHU216HW,2013-03-05 15:51:00,
2013-03-05 09:56:00,31.8,29.1,29.91,NNW,338,2.5,3.6,90,0.00,,,0.00,WUHU216HW,2013-03-05 15:56:00,
2013-03-05 10:01:00,31.8,28.8,29.91,NNW,338,1.8,3.4,89,0.00,,,0.00,WUHU216HW,2013-03-05 16:01:00,
2013-03-05 10:06:00,31.7,28.8,29.90,NW,315,1.8,3.4,89,0.00,,,0.00,WUHU216HW,2013-03-05 16:06:00,
2013-03-05 10:11:00,31.7,28.8,29.90,North,0,4.0,4.0,89,0.00,,,0.00,WUHU216HW,2013-03-05 16:11:00,
2013-03-05 10:16:00,31.7,28.8,29.90,NNW,338,1.8,4.3,89,0.00,,,0.00,WUHU216HW,2013-03-05 16:16:00,
2013-03-05 10:22:00,31.7,28.8,29.89,NNW,338,4.7,4.7,89,0.00,,,0.00,WUHU216HW,2013-03-05 16:22:00,
2013-03-05 10:27:00,31.9,29.0,29.90,North,0,2.7,4.7,89,0.00,,,0.00,WUHU216HW,2013-03-05 16:27:00,
2013-03-05 10:32:00,31.9,29.0,29.89,NW,315,0.4,2.9,89,0.00,,,0.00,WUHU216HW,2013-03-05 16:32:00,
2013-03-05 10:37:00,32.1,29.2,29.89,SSW,203,1.1,3.4,89,0.00,,,0.00,WUHU216HW,2013-03-05 16:37:00,
2013-03-05 10:42:00,31.9,29.0,29.89,NW,315,0.9,4.5,89,0.00,,,0.00,WUHU216HW,2013-03-05 16:42:00,
2013-03-05 10:47:00,32.1,29.2,29.88,NNW,338,4.7,4.7,89,0.00,,,0.00,WUHU216HW,2013-03-05 16:47:00,
2013-03-05 10:52:00,32.3,29.4,29.88,SSE,158,1.3,4.7,89,0.00,,,0.00,WUHU216HW,2013-03-05 16:52:00,
2013-03-05 10:57:00,32.3,29.4,29.88,NNW,338,1.1,3.4,89,0.00,,,0.00,WUHU216HW,2013-03-05 16:57:00,
2013-03-05 11:02:00,32.3,29.4,29.88,NNW,338,1.1,4.7,89,0.00,,,0.00,WUHU216HW,2013-03-05 17:02:00,
2013-03-05 11:08:00,32.3,29.4,29.88,NNW,338,2.5,4.7,89,0.00,,,0.00,WUHU216HW,2013-03-05 17:08:00,
2013-03-05 11:13:00,32.1,29.2,29.88,NNW,338,1.1,2.9,89,0.00,,,0.00,WUHU216HW,2013-03-05 17:13:00,
2013-03-05 11:18:00,31.9,29.0,29.88,WNW,293,1.1,4.0,89,0.00,,,0.00,WUHU216HW,2013-03-05 17:18:00,
2013-03-05 11:23:00,32.1,29.2,29.88,NW,315,1.8,4.0,89,0.00,,,0.00,WUHU216HW,2013-03-05 17:23:00,
2013-03-05 11:28:00,31.9,29.0,29.88,NW,315,3.1,4.9,89,0.00,,,0.00,WUHU216HW,2013-03-05 17:28:00,
2013-03-05 11:34:00,31.9,29.0,29.88,NW,315,1.1,5.1,89,0.00,,,0.00,WUHU216HW,2013-03-05 17:34:00,
2013-03-05 11:39:00,31.9,29.0,29.87,NW,315,0.4,5.1,89,0.00,,,0.00,WUHU216HW,2013-03-05 17:39:00,
2013-03-05 11:45:00,31.9,29.0,29.87,NW,315,1.3,2.7,89,0.00,,,0.00,WUHU216HW,2013-03-05 17:45:00,
2013-03-05 11:47:00,31.9,29.0,29.88,WNW,293,1.6,1.6,89,0.00,,,0.00,WUHU216HW,2013-03-05 17:47:00,
2013-03-05 11:50:00,31.9,29.0,29.88,WNW,293,1.6,4.3,89,0.00,,,0.00,WUHU216HW,2013-03-05 17:50:00,
2013-03-05 11:55:00,31.9,29.0,29.88,WNW,293,1.6,4.3,89,0.00,,,0.00,WUHU216HW,2013-03-05 17:55:00,
2013-03-05 12:01:00,31.5,28.6,29.87,NNW,338,3.1,3.1,89,0.00,,,0.00,WUHU216HW,2013-03-05 18:01:00,
2013-03-05 12:06:00,31.7,28.8,29.87,North,0,1.6,3.1,89,0.00,,,0.00,WUHU216HW,2013-03-05 18:06:00,
2013-03-05 12:12:00,31.7,28.8,29.87,NW,315,1.6,1.8,89,0.00,,,0.00,WUHU216HW,2013-03-05 18:12:00,
2013-03-05 12:17:00,31.7,28.8,29.87,NNW,338,1.3,2.0,89,0.00,,,0.00,WUHU216HW,2013-03-05 18:17:00,
2013-03-05 12:22:00,31.5,28.6,29.87,South,180,0.7,2.7,89,0.00,,,0.00,WUHU216HW,2013-03-05 18:22:00,
2013-03-05 12:27:00,31.5,28.6,29.87,SW,225,0.2,2.7,89,0.00,,,0.00,WUHU216HW,2013-03-05 18:27:00,
2013-03-05 12:32:00,31.7,28.8,29.87,NW,315,1.1,2.9,89,0.00,,,0.00,WUHU216HW,2013-03-05 18:32:00,
2013-03-05 12:37:00,31.7,28.8,29.87,NNW,338,3.1,3.1,89,0.00,,,0.00,WUHU216HW,2013-03-05 18:37:00,
2013-03-05 12:43:00,31.8,28.8,29.87,WNW,293,0.7,3.8,89,0.00,,,0.00,WUHU216HW,2013-03-05 18:43:00,
2013-03-05 12:48:00,32.0,29.0,29.87,NW,315,1.1,3.8,89,0.00,,,0.00,WUHU216HW,2013-03-05 18:48:00,
2013-03-05 12:53:00,32.0,29.0,29.87,North,0,1.8,1.8,89,0.00,,,0.00,WUHU216HW,2013-03-05 18:53:00,
2013-03-05 12:58:00,31.8,28.9,29.87,NNW,338,1.6,3.1,89,0.00,,,0.00,WUHU216HW,2013-03-05 18:58:00,
2013-03-05 13:03:00,32.0,29.1,29.86,NNW,338,1.3,3.1,89,0.00,,,0.00,WUHU216HW,2013-03-05 19:03:00,
2013-03-05 13:08:00,32.0,29.3,29.86,North,0,0.7,3.1,90,0.00,,,0.00,WUHU216HW,2013-03-05 19:08:00,
2013-03-05 13:13:00,32.0,29.3,29.86,NNW,338,2.7,2.7,90,0.00,,,0.00,WUHU216HW,2013-03-05 19:13:00,
2013-03-05 13:19:00,31.8,29.2,29.86,NNW,338,1.8,2.7,90,0.00,,,0.00,WUHU216HW,2013-03-05 19:19:00,
2013-03-05 13:24:00,32.0,29.4,29.86,NNW,338,1.1,2.5,90,0.00,,,0.00,WUHU216HW,2013-03-05 19:24:00,
2013-03-05 13:30:00,31.6,28.7,29.86,NNW,338,3.8,3.8,89,0.00,,,0.00,WUHU216HW,2013-03-05 19:30:00,
2013-03-05 13:35:00,31.6,28.7,29.86,NNW,338,3.4,3.8,89,0.00,,,0.00,WUHU216HW,2013-03-05 19:35:00,
2013-03-05 13:41:00,31.5,28.6,29.86,NNW,338,1.1,3.6,89,0.00,,,0.00,WUHU216HW,2013-03-05 19:41:00,
2013-03-05 13:46:00,31.6,28.6,29.85,NNW,338,0.7,3.8,89,0.00,,,0.00,WUHU216HW,2013-03-05 19:46:00,
2013-03-05 13:52:00,31.7,28.8,29.86,North,0,3.1,3.8,89,0.00,,,0.00,WUHU216HW,2013-03-05 19:52:00,
2013-03-05 13:57:00,31.6,28.7,29.85,NNW,338,1.8,3.8,89,0.00,,,0.00,WUHU216HW,2013-03-05 19:57:00,
2013-03-05 14:03:00,31.6,28.7,29.85,NNW,338,2.5,4.9,89,0.00,,,0.00,WUHU216HW,2013-03-05 20:03:00,
2013-03-05 14:08:00,31.6,28.7,29.85,NNW,338,3.4,5.4,89,0.00,,,0.00,WUHU216HW,2013-03-05 20:08:00,
2013-03-05 14:14:00,31.2,28.3,29.85,NNW,338,2.9,4.0,89,0.00,,,0.00,WUHU216HW,2013-03-05 20:14:00,
2013-03-05 14:20:00,31.2,28.3,29.85,NNW,338,1.8,4.0,89,0.00,,,0.00,WUHU216HW,2013-03-05 20:20:00,
2013-03-05 14:26:00,31.0,28.1,29.85,NNW,338,1.1,4.5,89,0.00,,,0.00,WUHU216HW,2013-03-05 20:26:00,
2013-03-05 14:31:00,31.1,28.2,29.85,NNW,338,1.6,4.5,89,0.00,,,0.00,WUHU216HW,2013-03-05 20:31:00,
2013-03-05 14:37:00,31.3,28.4,29.85,NNW,338,2.0,2.0,89,0.00,,,0.00,WUHU216HW,2013-03-05 20:37:00,
2013-03-05 14:42:00,31.1,28.4,29.86,NNW,338,3.4,3.4,90,0.00,,,0.00,WUHU216HW,2013-03-05 20:42:00,
2013-03-05 14:48:00,31.1,28.5,29.86,North,0,2.2,3.4,90,0.00,,,0.00,WUHU216HW,2013-03-05 20:48:00,
2013-03-05 14:53:00,31.3,28.4,29.86,NNW,338,1.8,3.1,89,0.00,,,0.00,WUHU216HW,2013-03-05 20:53:00,
2013-03-05 14:58:00,31.1,28.2,29.86,North,0,3.1,5.1,89,0.00,,,0.00,WUHU216HW,2013-03-05 20:58:00,
2013-03-05 15:03:00,30.9,28.3,29.86,NNW,338,2.5,5.1,90,0.00,,,0.00,WUHU216HW,2013-03-05 21:03:00,
2013-03-05 15:08:00,31.0,28.0,29.86,NNW,338,3.8,3.8,89,0.00,,,0.00,WUHU216HW,2013-03-05 21:08:00,
2013-03-05 15:13:00,31.0,28.1,29.86,NNW,338,3.4,3.8,89,0.00,,,0.00,WUHU216HW,2013-03-05 21:13:00,
2013-03-05 15:19:00,30.9,28.0,29.86,NNW,338,3.4,3.4,89,0.00,,,0.00,WUHU216HW,2013-03-05 21:19:00,
2013-03-05 15:24:00,30.9,28.0,29.86,NNW,338,2.5,3.4,89,0.00,,,0.00,WUHU216HW,2013-03-05 21:24:00,
2013-03-05 15:29:00,30.9,28.0,29.86,NNW,338,1.8,2.9,89,0.00,,,0.00,WUHU216HW,2013-03-05 21:29:00,
2013-03-05 15:34:00,30.9,28.0,29.87,NNW,338,2.5,5.4,89,0.00,,,0.00,WUHU216HW,2013-03-05 21:34:00,
2013-03-05 15:39:00,30.7,27.8,29.87,North,0,2.9,5.4,89,0.00,,,0.00,WUHU216HW,2013-03-05 21:39:00,
2013-03-05 15:44:00,30.6,27.7,29.87,North,0,4.0,5.1,89,0.00,,,0.00,WUHU216HW,2013-03-05 21:44:00,
2013-03-05 15:49:00,30.6,27.7,29.87,NNW,338,1.8,4.7,89,0.00,,,0.00,WUHU216HW,2013-03-05 21:49:00,
2013-03-05 15:54:00,30.6,27.7,29.87,NNW,338,3.1,3.1,89,0.00,,,0.00,WUHU216HW,2013-03-05 21:54:00,
2013-03-05 15:59:00,30.6,27.7,29.87,NNW,338,3.8,3.8,89,0.00,,,0.00,WUHU216HW,2013-03-05 21:59:00,
2013-03-05 16:04:00,30.6,27.8,29.87,NNW,338,0.4,3.8,89,0.00,,,0.00,WUHU216HW,2013-03-05 22:04:00,
2013-03-05 16:09:00,30.6,27.7,29.87,NNW,338,1.1,2.9,89,0.00,,,0.00,WUHU216HW,2013-03-05 22:09:00,
2013-03-05 16:14:00,30.4,27.5,29.87,WNW,293,4.0,4.0,89,0.00,,,0.00,WUHU216HW,2013-03-05 22:14:00,
2013-03-05 16:19:00,30.2,27.6,29.88,NNW,338,2.2,4.0,90,0.00,,,0.00,WUHU216HW,2013-03-05 22:19:00,
2013-03-05 16:25:00,30.2,27.0,29.88,NNW,338,3.6,4.5,88,0.00,,,0.00,WUHU216HW,2013-03-05 22:25:00,
2013-03-05 16:30:00,30.1,26.9,29.88,NNW,338,1.6,4.5,88,0.00,,,0.00,WUHU216HW,2013-03-05 22:30:00,
2013-03-05 16:35:00,30.1,27.2,29.88,NNW,338,4.0,4.3,89,0.00,,,0.00,WUHU216HW,2013-03-05 22:35:00,
2013-03-05 16:40:00,29.8,27.0,29.88,North,0,2.5,4.3,89,0.00,,,0.00,WUHU216HW,2013-03-05 22:40:00,
2013-03-05 16:45:00,29.8,26.9,29.88,NNW,338,1.3,2.7,89,0.00,,,0.00,WUHU216HW,2013-03-05 22:45:00,
2013-03-05 16:51:00,29.8,26.9,29.89,NNW,338,0.9,2.7,89,0.00,,,0.00,WUHU216HW,2013-03-05 22:51:00,
2013-03-05 16:56:00,29.8,26.9,29.89,NNW,338,1.3,2.5,89,0.00,,,0.00,WUHU216HW,2013-03-05 22:56:00,
2013-03-05 17:02:00,29.8,26.9,29.89,NNW,338,3.8,3.8,89,0.00,,,0.00,WUHU216HW,2013-03-05 23:02:00,
2013-03-05 17:07:00,29.6,26.7,29.90,NNW,338,1.1,3.8,89,0.00,,,0.00,WUHU216HW,2013-03-05 23:07:00,
2013-03-05 17:13:00,29.6,26.7,29.90,NNW,338,0.4,3.6,89,0.00,,,0.00,WUHU216HW,2013-03-05 23:13:00,
2013-03-05 17:18:00,29.6,26.7,29.90,NNW,338,0.9,2.5,89,0.00,,,0.00,WUHU216HW,2013-03-05 23:18:00,
2013-03-05 17:24:00,29.4,26.5,29.90,NNW,338,1.6,2.5,89,0.00,,,0.00,WUHU216HW,2013-03-05 23:24:00,
2013-03-05 17:29:00,29.6,26.7,29.91,NNW,338,1.8,4.3,89,0.00,,,0.00,WUHU216HW,2013-03-05 23:29:00,
2013-03-05 17:34:00,29.3,26.5,29.91,NNW,338,1.8,4.3,89,0.00,,,0.00,WUHU216HW,2013-03-05 23:34:00,
2013-03-05 17:39:00,29.3,26.5,29.91,NNW,338,1.3,4.0,89,0.00,,,0.00,WUHU216HW,2013-03-05 23:39:00,
2013-03-05 17:44:00,29.3,26.4,29.91,North,0,2.5,4.0,89,0.00,,,0.00,WUHU216HW,2013-03-05 23:44:00,
2013-03-05 17:49:00,29.3,26.4,29.91,North,0,1.3,4.0,89,0.00,,,0.00,WUHU216HW,2013-03-05 23:49:00,
2013-03-05 17:54:00,29.3,26.4,29.92,NNW,338,2.5,2.5,89,0.00,,,0.00,WUHU216HW,2013-03-05 23:54:00,
2013-03-05 17:59:00,29.1,26.2,29.92,NNW,338,2.5,2.7,89,0.00,,,0.00,WUHU216HW,2013-03-05 23:59:00,
2013-03-05 18:04:00,29.1,26.2,29.92,NNW,338,0.9,2.7,89,0.00,,,0.00,WUHU216HW,2013-03-06 00:04:00,
2013-03-05 18:09:00,29.3,26.4,29.92,North,0,1.6,3.4,89,0.00,,,0.00,WUHU216HW,2013-03-06 00:09:00,
2013-03-05 18:14:00,29.1,26.2,29.92,NNW,338,0.4,3.4,89,0.00,,,0.00,WUHU216HW,2013-03-06 00:14:00,
2013-03-05 18:19:00,29.3,26.4,29.92,NNW,338,1.1,2.5,89,0.00,,,0.00,WUHU216HW,2013-03-06 00:19:00,
2013-03-05 18:25:00,29.3,26.4,29.93,North,0,0.9,2.5,89,0.00,,,0.00,WUHU216HW,2013-03-06 00:25:00,
2013-03-05 18:30:00,29.1,26.2,29.93,North,0,1.1,2.2,89,0.00,,,0.00,WUHU216HW,2013-03-06 00:30:00,
2013-03-05 18:36:00,29.2,26.4,29.93,NNW,338,3.4,3.4,89,0.00,,,0.00,WUHU216HW,2013-03-06 00:36:00,
2013-03-05 18:41:00,29.2,26.4,29.93,North,0,1.6,3.4,89,0.00,,,0.00,WUHU216HW,2013-03-06 00:41:00,
2013-03-05 18:47:00,29.2,26.3,29.93,NNW,338,0.9,3.4,89,0.00,,,0.00,WUHU216HW,2013-03-06 00:47:00,
2013-03-05 18:52:00,29.2,26.3,29.93,North,0,1.8,3.4,89,0.00,,,0.00,WUHU216HW,2013-03-06 00:52:00,
2013-03-05 18:57:00,29.2,26.3,29.93,North,0,2.0,3.4,89,0.00,,,0.00,WUHU216HW,2013-03-06 00:57:00,
2013-03-05 19:02:00,29.2,26.3,29.94,North,0,0.7,3.4,89,0.00,,,0.00,WUHU216HW,2013-03-06 01:02:00,
2013-03-05 19:07:00,29.2,26.3,29.94,North,0,0.9,2.9,89,0.00,,,0.00,WUHU216HW,2013-03-06 01:07:00,
2013-03-05 19:12:00,29.4,26.5,29.94,North,0,1.8,1.8,89,0.00,,,0.00,WUHU216HW,2013-03-06 01:12:00,
2013-03-05 19:17:00,29.4,26.5,29.94,North,0,2.2,2.9,89,0.00,,,0.00,WUHU216HW,2013-03-06 01:17:00,
2013-03-05 19:22:00,29.4,26.5,29.94,NNW,338,1.1,2.9,89,0.00,,,0.00,WUHU216HW,2013-03-06 01:22:00,
2013-03-05 19:27:00,29.2,26.3,29.94,NNW,338,1.6,3.4,89,0.00,,,0.00,WUHU216HW,2013-03-06 01:27:00,
2013-03-05 19:33:00,29.4,26.7,29.94,NNW,338,2.0,4.3,90,0.00,,,0.00,WUHU216HW,2013-03-06 01:33:00,
2013-03-05 19:34:00,29.4,26.7,29.94,NNW,338,1.1,2.0,90,0.00,,,0.00,WUHU216HW,2013-03-06 01:34:00,
2013-03-05 19:38:00,29.4,26.7,29.94,NNW,338,1.1,4.3,90,0.00,,,0.00,WUHU216HW,2013-03-06 01:38:00,
2013-03-05 19:43:00,29.4,26.7,29.94,NNW,338,1.1,2.5,90,0.00,,,0.00,WUHU216HW,2013-03-06 01:43:00,
2013-03-05 20:01:00,29.5,26.9,29.95,NNW,338,0.4,0.4,90,0.00,,,0.00,WUHU216HW,2013-03-06 02:01:00,
2013-03-05 20:06:00,29.5,26.9,29.95,NW,315,0.2,3.6,90,0.00,,,0.00,WUHU216HW,2013-03-06 02:06:00,
2013-03-05 20:11:00,29.5,26.9,29.95,North,0,1.6,3.6,90,0.00,,,0.00,WUHU216HW,2013-03-06 02:11:00,
2013-03-05 20:16:00,29.5,26.9,29.95,North,0,0.4,2.5,90,0.00,,,0.00,WUHU216HW,2013-03-06 02:16:00,
2013-03-05 20:21:00,29.5,26.9,29.96,North,0,0.9,1.8,90,0.00,,,0.00,WUHU216HW,2013-03-06 02:21:00,
2013-03-05 20:26:00,29.5,26.9,29.96,North,0,0.2,1.6,90,0.00,,,0.00,WUHU216HW,2013-03-06 02:26:00,
2013-03-05 20:31:00,29.5,26.6,29.96,NNW,338,0.0,1.3,89,0.00,,,0.00,WUHU216HW,2013-03-06 02:31:00,
2013-03-05 20:36:00,29.5,26.6,29.96,North,0,1.1,1.1,89,0.00,,,0.00,WUHU216HW,2013-03-06 02:36:00,
2013-03-05 20:41:00,29.5,26.9,29.96,North,0,0.2,1.1,90,0.00,,,0.00,WUHU216HW,2013-03-06 02:41:00,
2013-03-05 20:46:00,29.5,26.9,29.96,North,0,1.1,1.1,90,0.00,,,0.00,WUHU216HW,2013-03-06 02:46:00,
2013-03-05 20:51:00,29.5,26.9,29.96,NNW,338,0.4,1.8,90,0.00,,,0.00,WUHU216HW,2013-03-06 02:51:00,
2013-03-05 20:57:00,29.7,27.0,29.96,NNW,338,0.9,1.8,90,0.00,,,0.00,WUHU216HW,2013-03-06 02:57:00,
2013-03-05 21:02:00,29.8,27.1,29.97,North,0,1.1,2.5,90,0.00,,,0.00,WUHU216HW,2013-03-06 03:02:00,
2013-03-05 21:07:00,30.0,27.3,29.97,North,0,2.5,4.5,90,0.00,,,0.00,WUHU216HW,2013-03-06 03:07:00,
2013-03-05 21:13:00,30.0,27.3,29.97,NNW,338,1.3,4.5,90,0.00,,,0.00,WUHU216HW,2013-03-06 03:13:00,
2013-03-05 21:18:00,30.0,27.1,29.97,North,0,1.1,4.7,89,0.00,,,0.00,WUHU216HW,2013-03-06 03:18:00,
2013-03-05 21:23:00,29.9,27.1,29.98,NNW,338,2.7,4.9,89,0.00,,,0.00,WUHU216HW,2013-03-06 03:23:00,
2013-03-05 21:28:00,29.9,27.3,29.98,NNE,23,2.7,4.9,90,0.00,,,0.00,WUHU216HW,2013-03-06 03:28:00,
2013-03-05 21:33:00,29.7,27.1,29.98,North,0,1.3,4.0,90,0.00,,,0.00,WUHU216HW,2013-03-06 03:33:00,
2013-03-05 21:38:00,29.7,26.8,29.98,North,0,1.3,4.0,89,0.00,,,0.00,WUHU216HW,2013-03-06 03:38:00,
2013-03-05 21:44:00,29.6,26.5,29.99,North,0,2.2,3.1,88,0.00,,,0.00,WUHU216HW,2013-03-06 03:44:00,
2013-03-05 21:49:00,29.6,26.5,29.99,NNW,338,2.5,3.4,88,0.00,,,0.00,WUHU216HW,2013-03-06 03:49:00,
2013-03-05 21:54:00,29.4,26.3,29.99,NNW,338,1.1,3.8,88,0.00,,,0.00,WUHU216HW,2013-03-06 03:54:00,
2013-03-05 21:59:00,29.4,26.3,29.99,SE,135,0.9,3.8,88,0.00,,,0.00,WUHU216HW,2013-03-06 03:59:00,
2013-03-05 22:04:00,29.4,26.3,29.99,North,0,1.8,3.4,88,0.00,,,0.00,WUHU216HW,2013-03-06 04:04:00,
2013-03-05 22:09:00,29.2,26.1,29.99,NW,315,1.1,2.2,88,0.00,,,0.00,WUHU216HW,2013-03-06 04:09:00,
2013-03-05 22:14:00,29.0,25.9,30.00,North,0,1.8,1.8,88,0.00,,,0.00,WUHU216HW,2013-03-06 04:14:00,
2013-03-05 22:19:00,28.8,25.7,30.00,NNW,338,1.1,2.5,88,0.00,,,0.00,WUHU216HW,2013-03-06 04:19:00,
2013-03-05 22:25:00,28.7,25.6,30.00,North,0,0.9,2.5,88,0.00,,,0.00,WUHU216HW,2013-03-06 04:25:00,
2013-03-05 22:30:00,28.7,25.6,30.00,WNW,293,1.1,3.1,88,0.00,,,0.00,WUHU216HW,2013-03-06 04:30:00,
2013-03-05 22:36:00,28.5,25.4,30.00,North,0,1.8,3.1,88,0.00,,,0.00,WUHU216HW,2013-03-06 04:36:00,
2013-03-05 22:41:00,28.3,25.2,30.01,North,0,1.1,2.0,88,0.00,,,0.00,WUHU216HW,2013-03-06 04:41:00,
2013-03-05 22:46:00,28.3,25.2,30.01,North,0,0.4,1.8,88,0.00,,,0.00,WUHU216HW,2013-03-06 04:46:00,
2013-03-05 22:51:00,28.1,25.0,30.01,ENE,68,1.8,1.8,88,0.00,,,0.00,WUHU216HW,2013-03-06 04:51:00,
2013-03-05 22:56:00,28.1,25.0,30.01,North,0,1.3,1.8,88,0.00,,,0.00,WUHU216HW,2013-03-06 04:56:00,
2013-03-05 23:00:00,28.3,25.2,30.01,NNW,338,0.9,1.8,88,0.00,,,0.00,WUHU216HW,2013-03-06 05:00:00,
2013-03-05 23:01:00,28.3,25.2,30.01,NE,45,1.8,1.8,88,0.00,,,0.00,WUHU216HW,2013-03-06 05:01:00,
2013-03-05 23:06:00,28.1,25.0,30.01,NW,315,2.9,2.9,88,0.00,,,0.00,WUHU216HW,2013-03-06 05:06:00,
2013-03-05 23:11:00,28.3,25.2,30.01,North,0,1.3,2.9,88,0.00,,,0.00,WUHU216HW,2013-03-06 05:11:00,
2013-03-05 23:16:00,28.3,25.2,30.02,NE,45,2.5,2.9,88,0.00,,,0.00,WUHU216HW,2013-03-06 05:16:00,
2013-03-05 23:21:00,28.3,25.2,30.02,WNW,293,0.4,2.9,88,0.00,,,0.00,WUHU216HW,2013-03-06 05:21:00,
2013-03-05 23:26:00,28.3,25.2,30.02,NE,45,1.6,3.1,88,0.00,,,0.00,WUHU216HW,2013-03-06 05:26:00,
2013-03-05 23:31:00,28.3,25.2,30.02,NNW,338,1.1,1.8,88,0.00,,,0.00,WUHU216HW,2013-03-06 05:31:00,
2013-03-05 23:36:00,28.5,25.4,30.03,NE,45,1.1,2.2,88,0.00,,,0.00,WUHU216HW,2013-03-06 05:36:00,
2013-03-05 23:42:00,28.5,25.4,30.03,NNE,23,1.3,2.5,88,0.00,,,0.00,WUHU216HW,2013-03-06 05:42:00,
2013-03-05 23:47:00,28.3,25.2,30.03,North,0,0.4,2.5,88,0.00,,,0.00,WUHU216HW,2013-03-06 05:47:00,
2013-03-05 23:53:00,28.3,25.2,30.02,NNW,338,0.9,2.2,88,0.00,,,0.00,WUHU216HW,2013-03-06 05:53:00,
2013-03-05 23:58:00,28.5,25.1,30.03,NNW,338,1.3,2.9,87,0.00,,,0.00,WUHU216HW,2013-03-06 05:58:00,